IBS1668 LEPA-LEMD

Flight info

Callsign IBS1668
Flight time 1h 1m
Altitude 31000
Route EPAMA N733 PRADO
Aircraft A320/M-SDE3FGHIRWY/LB1

Departure

Time 2026-05-07 15:53
Airport Palma de Mallorca Airport (LEPA)

Arrival

Time 2026-05-07 16:55
Airport Adolfo Suárez Madrid–Barajas Airport (LEMD)
Time Latitude Longitude Altitude Speed Heading
2026-05-07 14:56 39.54650 2.73442 30 ft 0 kts 254°
2026-05-07 15:45 39.54655 2.73461 30 ft 4 kts 244°
2026-05-07 15:45 39.54670 2.73488 30 ft 4 kts 208°
2026-05-07 15:45 39.54694 2.73495 30 ft 4 kts 166°
2026-05-07 15:46 39.54711 2.73486 30 ft 0 kts 150°
2026-05-07 15:48 39.54703 2.73493 30 ft 3 kts 150°
2026-05-07 15:49 39.54672 2.73518 30 ft 7 kts 148°
2026-05-07 15:49 39.54625 2.73584 30 ft 13 kts 103°
2026-05-07 15:49 39.54563 2.73631 30 ft 12 kts 218°
2026-05-07 15:49 39.54517 2.73550 30 ft 10 kts 240°
2026-05-07 15:50 39.54483 2.73476 30 ft 9 kts 238°
2026-05-07 15:50 39.54442 2.73390 30 ft 16 kts 239°
2026-05-07 15:50 39.54376 2.73251 30 ft 19 kts 237°
2026-05-07 15:50 39.54306 2.73104 30 ft 20 kts 239°
2026-05-07 15:51 39.54222 2.73104 30 ft 15 kts 110°
2026-05-07 15:51 39.54219 2.73144 30 ft 0 kts 94°
2026-05-07 15:51 39.54218 2.73169 30 ft 7 kts 94°
2026-05-07 15:52 39.54213 2.73260 30 ft 11 kts 94°
2026-05-07 15:52 39.54215 2.73355 30 ft 10 kts 70°
2026-05-07 15:52 39.54227 2.73382 30 ft 0 kts 59°
2026-05-07 15:52 39.54313 2.73568 30 ft 61 kts 59°
2026-05-07 15:53 39.54652 2.74285 30 ft 123 kts 58°
2026-05-07 15:53 39.55186 2.75416 42 ft 169 kts 60°
2026-05-07 15:53 39.55792 2.76723 677 ft 168 kts 61°
2026-05-07 15:53 39.56377 2.78041 1377 ft 169 kts 63°
2026-05-07 15:54 39.56975 2.79399 1900 ft 182 kts 61°
2026-05-07 15:54 39.57656 2.80896 2220 ft 205 kts 61°
2026-05-07 15:54 39.58401 2.82515 2895 ft 211 kts 60°
2026-05-07 15:54 39.59159 2.84155 3741 ft 212 kts 60°
2026-05-07 15:55 39.59920 2.85809 4530 ft 215 kts 60°
2026-05-07 15:55 39.60691 2.87488 5267 ft 219 kts 60°
2026-05-07 15:55 39.61477 2.89202 6003 ft 223 kts 58°
2026-05-07 15:55 39.62555 2.90653 6710 ft 230 kts 29°
2026-05-07 15:56 39.64114 2.91112 7447 ft 236 kts 355°
2026-05-07 15:56 39.65638 2.90321 8162 ft 242 kts 319°
2026-05-07 15:56 39.66591 2.88515 8865 ft 247 kts 293°
2026-05-07 15:56 39.67008 2.86264 9230 ft 270 kts 270°
2026-05-07 15:57 39.66943 2.83728 9588 ft 290 kts 267°
2026-05-07 15:57 39.66836 2.81062 10129 ft 304 kts 266°
2026-05-07 15:57 39.66712 2.78215 10383 ft 328 kts 266°
2026-05-07 15:57 39.66578 2.75184 10785 ft 343 kts 266°
2026-05-07 15:58 39.66447 2.72098 11482 ft 348 kts 266°
2026-05-07 15:58 39.66322 2.68953 12232 ft 350 kts 265°
2026-05-07 15:58 39.66198 2.65793 12986 ft 352 kts 265°
2026-05-07 15:58 39.66072 2.62595 13642 ft 355 kts 265°
2026-05-07 15:59 39.65944 2.59395 13876 ft 356 kts 265°
2026-05-07 15:59 39.65812 2.56189 13939 ft 355 kts 265°
2026-05-07 15:59 39.65677 2.52968 14402 ft 358 kts 265°
2026-05-07 15:59 39.65540 2.49729 15100 ft 361 kts 265°
2026-05-07 16:00 39.65401 2.46464 15757 ft 364 kts 265°
2026-05-07 16:00 39.65264 2.43174 16383 ft 367 kts 264°
2026-05-07 16:00 39.65122 2.39859 16982 ft 369 kts 264°
2026-05-07 16:00 39.64979 2.36516 17571 ft 372 kts 264°
2026-05-07 16:01 39.64835 2.33148 18154 ft 375 kts 264°
2026-05-07 16:01 39.64688 2.29751 18728 ft 377 kts 264°
2026-05-07 16:01 39.64535 2.26344 19318 ft 379 kts 264°
2026-05-07 16:01 39.64381 2.22927 19904 ft 380 kts 263°
2026-05-07 16:02 39.64227 2.19505 20477 ft 380 kts 263°
2026-05-07 16:02 39.64073 2.16077 21046 ft 381 kts 263°
2026-05-07 16:02 39.63918 2.12651 21592 ft 382 kts 263°
2026-05-07 16:02 39.63763 2.09207 22136 ft 382 kts 263°
2026-05-07 16:03 39.63609 2.05764 22648 ft 382 kts 263°
2026-05-07 16:03 39.63452 2.02318 23152 ft 383 kts 263°
2026-05-07 16:03 39.63292 1.98874 23642 ft 384 kts 263°
2026-05-07 16:03 39.63130 1.95417 24112 ft 384 kts 263°
2026-05-07 16:04 39.62966 1.91954 24560 ft 385 kts 262°
2026-05-07 16:04 39.62801 1.88469 24968 ft 387 kts 262°
2026-05-07 16:04 39.62635 1.84976 25350 ft 389 kts 262°
2026-05-07 16:04 39.62469 1.81472 25722 ft 391 kts 262°
2026-05-07 16:05 39.62301 1.77939 26068 ft 394 kts 262°
2026-05-07 16:05 39.62135 1.74425 26403 ft 396 kts 262°
2026-05-07 16:05 39.61964 1.70853 26770 ft 398 kts 262°
2026-05-07 16:05 39.61788 1.67263 27116 ft 400 kts 261°
2026-05-07 16:06 39.61608 1.63657 27443 ft 402 kts 261°
2026-05-07 16:06 39.61426 1.60030 27761 ft 404 kts 261°
2026-05-07 16:06 39.61241 1.56384 28075 ft 406 kts 261°
2026-05-07 16:06 39.61055 1.52719 28386 ft 408 kts 261°
2026-05-07 16:07 39.60869 1.49037 28682 ft 410 kts 261°
2026-05-07 16:07 39.60682 1.45337 28973 ft 412 kts 261°
2026-05-07 16:07 39.60491 1.41608 29225 ft 414 kts 260°
2026-05-07 16:07 39.60299 1.37872 29495 ft 416 kts 260°
2026-05-07 16:08 39.60100 1.34132 29784 ft 417 kts 260°
2026-05-07 16:08 39.59896 1.30362 30043 ft 419 kts 260°
2026-05-07 16:08 39.59684 1.26586 30296 ft 421 kts 259°
2026-05-07 16:08 39.59468 1.22803 30532 ft 423 kts 259°
2026-05-07 16:09 39.59250 1.18989 30794 ft 424 kts 259°
2026-05-07 16:09 39.59032 1.15184 30904 ft 421 kts 259°
2026-05-07 16:09 39.58827 1.11504 30925 ft 410 kts 259°
2026-05-07 16:10 39.58411 1.04192 30921 ft 404 kts 259°
2026-05-07 16:10 39.57983 0.96925 30924 ft 404 kts 259°
2026-05-07 16:11 39.57551 0.89661 30926 ft 404 kts 259°
2026-05-07 16:11 39.57117 0.82390 30926 ft 405 kts 259°
2026-05-07 16:12 39.56685 0.75123 30923 ft 405 kts 259°
2026-05-07 16:12 39.56241 0.67847 30918 ft 405 kts 259°
2026-05-07 16:13 39.55784 0.60576 30915 ft 405 kts 259°
2026-05-07 16:13 39.55326 0.53288 30915 ft 405 kts 259°
2026-05-07 16:14 39.54876 0.46003 30915 ft 405 kts 259°
2026-05-07 16:14 39.54425 0.38725 30913 ft 405 kts 258°
2026-05-07 16:15 39.53963 0.31444 30915 ft 406 kts 258°
2026-05-07 16:15 39.53489 0.24160 30918 ft 406 kts 258°
2026-05-07 16:16 39.53015 0.16920 30919 ft 406 kts 258°
2026-05-07 16:16 39.52540 0.09631 30918 ft 406 kts 258°
2026-05-07 16:17 39.52057 0.02333 30919 ft 406 kts 258°
2026-05-07 16:17 39.51569 -0.04957 30929 ft 406 kts 259°
2026-05-07 16:18 39.51076 -0.12218 30963 ft 402 kts 262°
2026-05-07 16:18 39.50579 -0.19401 30969 ft 400 kts 264°
2026-05-07 16:19 39.50084 -0.26565 30966 ft 398 kts 264°
2026-05-07 16:19 39.49590 -0.33690 30958 ft 397 kts 264°
2026-05-07 16:20 39.49095 -0.40818 30947 ft 397 kts 264°
2026-05-07 16:20 39.49093 -0.46751 30930 ft 399 kts 277°
2026-05-07 16:21 39.50887 -0.53555 30926 ft 406 kts 296°
2026-05-07 16:21 39.54169 -0.60929 30922 ft 406 kts 296°
2026-05-07 16:22 39.56519 -0.66255 30929 ft 407 kts 296°
2026-05-07 16:22 39.59325 -0.72635 30927 ft 407 kts 296°
2026-05-07 16:23 39.62129 -0.79030 30926 ft 408 kts 296°
2026-05-07 16:23 39.64921 -0.85405 30928 ft 409 kts 296°
2026-05-07 16:24 39.67756 -0.91866 30930 ft 410 kts 296°
2026-05-07 16:24 39.70580 -0.98311 30931 ft 411 kts 296°
2026-05-07 16:25 39.73405 -1.04780 30937 ft 412 kts 296°
2026-05-07 16:25 39.76201 -1.11234 30940 ft 413 kts 296°
2026-05-07 16:26 39.79028 -1.17744 30939 ft 414 kts 296°
2026-05-07 16:26 39.81874 -1.24262 30949 ft 415 kts 296°
2026-05-07 16:27 39.84716 -1.30801 30950 ft 415 kts 295°
2026-05-07 16:27 39.87550 -1.37371 30952 ft 417 kts 295°
2026-05-07 16:28 39.90384 -1.43968 30954 ft 418 kts 295°
2026-05-07 16:28 39.93231 -1.50579 30796 ft 421 kts 295°
2026-05-07 16:28 39.94672 -1.53926 30083 ft 423 kts 295°
2026-05-07 16:29 39.96109 -1.57268 29466 ft 421 kts 295°
2026-05-07 16:29 39.97555 -1.60638 28918 ft 430 kts 295°
2026-05-07 16:29 39.99012 -1.64050 28369 ft 431 kts 295°
2026-05-07 16:29 40.00467 -1.67455 27816 ft 429 kts 295°
2026-05-07 16:30 40.01921 -1.70855 27264 ft 428 kts 295°
2026-05-07 16:30 40.03366 -1.74237 26714 ft 426 kts 295°
2026-05-07 16:30 40.04803 -1.77606 26162 ft 424 kts 295°
2026-05-07 16:30 40.06234 -1.80956 25611 ft 421 kts 295°
2026-05-07 16:31 40.07653 -1.84280 25064 ft 418 kts 296°
2026-05-07 16:31 40.09067 -1.87603 24508 ft 416 kts 295°
2026-05-07 16:31 40.10465 -1.90893 23944 ft 413 kts 295°
2026-05-07 16:31 40.11836 -1.94131 23412 ft 411 kts 295°
2026-05-07 16:32 40.13230 -1.97429 22854 ft 408 kts 295°
2026-05-07 16:32 40.14595 -2.00655 22304 ft 405 kts 296°
2026-05-07 16:32 40.15957 -2.03874 21750 ft 402 kts 296°
2026-05-07 16:32 40.17308 -2.07059 21201 ft 400 kts 296°
2026-05-07 16:33 40.18651 -2.10231 20642 ft 397 kts 296°
2026-05-07 16:33 40.19978 -2.13379 20096 ft 394 kts 296°
2026-05-07 16:33 40.21299 -2.16517 19547 ft 392 kts 296°
2026-05-07 16:33 40.22595 -2.19594 19003 ft 390 kts 296°
2026-05-07 16:34 40.23901 -2.22696 18468 ft 388 kts 296°
2026-05-07 16:34 40.25204 -2.25784 17898 ft 387 kts 297°
2026-05-07 16:34 40.26499 -2.28863 17351 ft 385 kts 296°
2026-05-07 16:34 40.27787 -2.31931 16800 ft 383 kts 296°
2026-05-07 16:35 40.29065 -2.34983 16249 ft 382 kts 297°
2026-05-07 16:35 40.30343 -2.38038 15696 ft 381 kts 297°
2026-05-07 16:35 40.31613 -2.41074 15160 ft 379 kts 297°
2026-05-07 16:35 40.32904 -2.44031 14948 ft 369 kts 303°
2026-05-07 16:36 40.34492 -2.46631 14798 ft 364 kts 308°
2026-05-07 16:36 40.36109 -2.49186 14648 ft 362 kts 308°
2026-05-07 16:36 40.37719 -2.51733 14493 ft 361 kts 308°
2026-05-07 16:36 40.39319 -2.54265 14341 ft 360 kts 308°
2026-05-07 16:37 40.40912 -2.56788 14207 ft 360 kts 308°
2026-05-07 16:37 40.42507 -2.59315 14078 ft 359 kts 308°
2026-05-07 16:37 40.44097 -2.61833 13958 ft 358 kts 308°
2026-05-07 16:37 40.45687 -2.64348 13832 ft 356 kts 308°
2026-05-07 16:38 40.47269 -2.66866 13701 ft 357 kts 308°
2026-05-07 16:38 40.48843 -2.69373 13588 ft 357 kts 308°
2026-05-07 16:38 40.50398 -2.71858 13443 ft 356 kts 307°
2026-05-07 16:38 40.51969 -2.74367 13323 ft 356 kts 307°
2026-05-07 16:39 40.53539 -2.76867 13194 ft 354 kts 307°
2026-05-07 16:39 40.55106 -2.79361 13065 ft 353 kts 307°
2026-05-07 16:39 40.56665 -2.81847 12944 ft 353 kts 307°
2026-05-07 16:39 40.58225 -2.84342 12816 ft 352 kts 307°
2026-05-07 16:40 40.59771 -2.86816 12689 ft 344 kts 307°
2026-05-07 16:40 40.61279 -2.89231 12562 ft 338 kts 307°
2026-05-07 16:40 40.62751 -2.91586 12435 ft 329 kts 307°
2026-05-07 16:40 40.64200 -2.93907 12307 ft 328 kts 307°
2026-05-07 16:41 40.65641 -2.96219 12185 ft 326 kts 307°
2026-05-07 16:41 40.67076 -2.98525 12059 ft 325 kts 307°
2026-05-07 16:41 40.68501 -3.00821 11932 ft 324 kts 307°
2026-05-07 16:41 40.69927 -3.03117 11807 ft 324 kts 307°
2026-05-07 16:42 40.71354 -3.05412 11678 ft 324 kts 307°
2026-05-07 16:42 40.72779 -3.07705 11554 ft 323 kts 307°
2026-05-07 16:42 40.74204 -3.09999 11430 ft 323 kts 307°
2026-05-07 16:42 40.75626 -3.12291 11302 ft 322 kts 307°
2026-05-07 16:43 40.77047 -3.14581 11176 ft 322 kts 307°
2026-05-07 16:43 40.78462 -3.16866 11060 ft 322 kts 307°
2026-05-07 16:43 40.79878 -3.19150 10925 ft 321 kts 307°
2026-05-07 16:43 40.81289 -3.21428 10808 ft 321 kts 307°
2026-05-07 16:44 40.82688 -3.23688 10663 ft 312 kts 307°
2026-05-07 16:44 40.84044 -3.25876 10547 ft 302 kts 307°
2026-05-07 16:44 40.85345 -3.27978 10452 ft 291 kts 307°
2026-05-07 16:44 40.86598 -3.30014 10353 ft 280 kts 306°
2026-05-07 16:45 40.87808 -3.31984 10254 ft 270 kts 306°
2026-05-07 16:45 40.88974 -3.33884 10142 ft 263 kts 306°
2026-05-07 16:45 40.90122 -3.35753 10030 ft 261 kts 306°
2026-05-07 16:45 40.91134 -3.37719 9838 ft 258 kts 293°
2026-05-07 16:46 40.91741 -3.39922 9560 ft 253 kts 279°
2026-05-07 16:46 40.92091 -3.42194 9285 ft 252 kts 279°
2026-05-07 16:46 40.92394 -3.44467 9014 ft 250 kts 271°
2026-05-07 16:46 40.92334 -3.46739 8734 ft 246 kts 258°
2026-05-07 16:47 40.91997 -3.48956 8460 ft 244 kts 250°
2026-05-07 16:47 40.91294 -3.50978 8182 ft 242 kts 235°
2026-05-07 16:47 40.90225 -3.52631 7926 ft 240 kts 220°
2026-05-07 16:47 40.88843 -3.53898 7640 ft 238 kts 211°
2026-05-07 16:48 40.87443 -3.55036 7365 ft 235 kts 211°
2026-05-07 16:48 40.86072 -3.56151 7118 ft 232 kts 212°
2026-05-07 16:48 40.84719 -3.57199 7027 ft 220 kts 203°
2026-05-07 16:48 40.83255 -3.57657 7030 ft 218 kts 182°
2026-05-07 16:49 40.81732 -3.57656 7035 ft 223 kts 181°
2026-05-07 16:49 40.80139 -3.57643 7037 ft 231 kts 181°
2026-05-07 16:49 40.78525 -3.57632 6979 ft 233 kts 181°
2026-05-07 16:49 40.76914 -3.57623 6732 ft 230 kts 181°
2026-05-07 16:50 40.75309 -3.57613 6454 ft 231 kts 181°
2026-05-07 16:50 40.73704 -3.57604 6150 ft 230 kts 181°
2026-05-07 16:50 40.72104 -3.57595 5844 ft 229 kts 181°
2026-05-07 16:50 40.70509 -3.57585 5538 ft 228 kts 180°
2026-05-07 16:51 40.68928 -3.57576 5238 ft 226 kts 180°
2026-05-07 16:51 40.67359 -3.57567 4942 ft 225 kts 179°
2026-05-07 16:51 40.65799 -3.57558 4638 ft 224 kts 179°
2026-05-07 16:51 40.64240 -3.57549 4333 ft 224 kts 179°
2026-05-07 16:52 40.62711 -3.57540 4049 ft 215 kts 179°
2026-05-07 16:52 40.61245 -3.57532 3776 ft 207 kts 180°
2026-05-07 16:52 40.59853 -3.57523 3518 ft 194 kts 181°
2026-05-07 16:52 40.58549 -3.57515 3253 ft 181 kts 181°
2026-05-07 16:53 40.57322 -3.57508 2982 ft 172 kts 181°
2026-05-07 16:53 40.56179 -3.57511 2756 ft 163 kts 180°
2026-05-07 16:53 40.55067 -3.57520 2555 ft 157 kts 178°
2026-05-07 16:53 40.53985 -3.57490 2339 ft 154 kts 178°
2026-05-07 16:54 40.52917 -3.57477 2150 ft 153 kts 178°
2026-05-07 16:54 40.51858 -3.57475 2013 ft 152 kts 179°
2026-05-07 16:54 40.50924 -3.57464 1996 ft 109 kts 180°
2026-05-07 16:54 40.50333 -3.57457 1990 ft 62 kts 179°
2026-05-07 16:55 40.50008 -3.57493 1987 ft 37 kts 198°
2026-05-07 16:55 40.49874 -3.57576 1984 ft 22 kts 206°
2026-05-07 16:55 40.49841 -3.57602 1985 ft 0 kts 214°
2026-05-07 16:56 40.49824 -3.57617 1984 ft 8 kts 214°
2026-05-07 16:56 40.49772 -3.57663 1986 ft 7 kts 213°
2026-05-07 16:56 40.49737 -3.57744 1991 ft 5 kts 271°
2026-05-07 16:57 40.49736 -3.57807 1994 ft 12 kts 269°
2026-05-07 16:57 40.49736 -3.57963 2000 ft 19 kts 268°
2026-05-07 16:57 40.49735 -3.58121 2003 ft 16 kts 270°
2026-05-07 16:57 40.49735 -3.58259 2010 ft 15 kts 269°
2026-05-07 16:58 40.49734 -3.58392 2013 ft 14 kts 269°
2026-05-07 16:58 40.49733 -3.58521 2017 ft 14 kts 270°
2026-05-07 16:58 40.49733 -3.58654 2025 ft 16 kts 270°
2026-05-07 16:58 40.49711 -3.58801 2025 ft 17 kts 221°
2026-05-07 16:59 40.49613 -3.58883 2027 ft 17 kts 197°
2026-05-07 16:59 40.49488 -3.58885 2025 ft 19 kts 181°
2026-05-07 16:59 40.49442 -3.58937 2022 ft 7 kts 283°
2026-05-07 16:59 40.49443 -3.58971 2022 ft 0 kts 271°